Location: Casilda
(33.0440°S, 61.1680°W)
Time: 10:22:35
(UTC-03:00)

ISS - Pass Details

Date: 09 August 2022
Orbit: 412 x 420 km, 51.6° (Epoch: 13 August)

Event Time Altitude Azimuth Distance (km) Brightness Sun altitude
Exits shadow 07:19:26 - 246° (WSW) 1,651 -1.4 -6.7°
Reaches altitude 10° 07:19:48 10° 249° (WSW) 1,520 -1.6 -6.6°
Maximum altitude 07:22:47 28° 310° (NW) 829 -2.6 -6.0°
Drops below altitude 10° 07:25:43 10° 10° (N) 1,499 -0.6 -5.4°
Sets 07:27:58 0° 22° (NNE) 2,354 0.6 -4.9°
